Tracking 33679 objects as of 4-Apr-2026
HD Live streaming from Space Station
objects crossing your sky now
Track ARTEMIS 2 (INTEGRITY)

CHINASAT 2D

Track CHINASAT 2D now!


NORAD ID: 43920
Int'l Code: 2019-001A
Perigee: 35,789.7 km
Apogee: 35,796.4 km
Inclination: 0.1 °
Period: 1,436.1 minutes
Semi major axis: 42164 km
RCS: Unknown
Launch date: January 10, 2019
Source: People's Republic of China (PRC)
Launch site: Xichang Space Center, China (XSC)
Your satellite tracking list
Your tracking list is empty




NASA's NSSDC Master Catalog

Two Line Element Set (TLE):
1 43920U 19001A   26093.91681282 -.00000338  00000-0  00000-0 0  9991
2 43920   0.0575  30.0888 0000792 279.4500 342.7449  1.00274320 53335
Source of the keplerian elements: AFSPC